Location: Shepherdstown, WV
(39.4326°N, 77.8042°W)
Time: 04:32:47
(UTC-04:00)

Vanguard 3 - Pass Details

Date: 02 August 2021
Orbit: 510 x 3260 km, 33.3° (Epoch: 21 September)

Event Time Altitude Azimuth Distance (km) Brightness Sun altitude
Rises 23:27:34 0° 280° (W) 6,770 12.4 -27.6°
Reaches altitude 10° 23:31:57 10° 276° (W) 5,956 11.9 -28.0°
Maximum altitude 23:50:26 52° 208° (SSW) 3,712 10.1 -29.6°
Enters shadow 23:56:19 42° 167° (SSE) 3,884 10.0 -30.0°
Drops below altitude 10° 00:06:48 10° 138° (SE) 5,321 - -30.8°
Sets 00:10:29 0° 133° (SE) 6,033 - -31.0°
